This demonstration page uses our WeatherBlox Daily Observations layout. Learn more.

Left ArrowRight Arrow

34.02893, -84.19858

Hourly Observations for December 2, 2018

Temp ( °F °C ) Dew Point ( °F °C ) Humidity (%) Winds ( mph kmh ) Pressure ( in mb ) Visibility ( mi km ) Precip ( " mm )
12:04 am 00:04 Cloudy with Mist and Fog 57 13.9 56 13.3 96 96 Calm 29.71 1006 3 4 0.00 0.00
12:41 am 00:41 Cloudy with Mist and Fog 59 15 59 15 100 100 SE 3 6 29.68 1005 1 2 0.00 0.00
12:53 am 00:53 Cloudy with Mist and Fog 60 15.6 60 15.6 100 100 SE 5 7 29.71 1006 2 3 0.00 0.00
1:06 am 01:06 Cloudy with Mist and Fog 60 15.6 60 15.6 100 100 SSE 7 11 29.68 1005 2 3 0.00 0.00
1:53 am 01:53 Cloudy with Mist and Fog 62 16.7 62 16.7 100 100 S 6 9 29.70 1006 3 4 0.00 0.00
2:01 am 02:01 Cloudy with Mist and Fog 63 17.2 62 16.7 97 97 S 8 13 29.68 1005 4 6 0.00 0.00
2:45 am 02:45 Cloudy with Mist and Fog 63 17.2 63 17.2 100 100 S 7 11 29.68 1005 6 10 0.00 0.03
2:53 am 02:53 Cloudy with Mist and Fog 64 17.8 63 17.2 96 96 S 6 9 29.70 1006 6 10 0.00 0.03
3:53 am 03:53 Cloudy 65 18.3 64 17.8 97 97 S 5 7 29.70 1006 7 11 0.02 0.51
4:53 am 04:53 Cloudy with Mist and Fog 65 18.3 65 18.3 100 100 S 6 9 29.70 1006 6 10 0.00 0.00
5:28 am 05:28 Cloudy with Light Rain 65 18.3 64 17.8 97 97 SSE 3 6 29.68 1005 3 4 0.00 0.03
5:32 am 05:32 Cloudy with Light Rain 65 18.3 64 17.8 97 97 Calm 29.68 1005 4 6 0.00 0.03
5:40 am 05:40 Cloudy with Light Rain 65 18.3 64 17.8 97 97 Calm 29.68 1005 4 6 0.01 0.25
5:44 am 05:44 Cloudy with Mist and Fog 64 17.8 64 17.8 100 100 Calm 29.68 1005 3 4 0.01 0.25
5:53 am 05:53 Cloudy with Mist and Fog 64 17.8 64 17.8 100 100 Calm 29.71 1006 2 3 0.01 0.25
6:02 am 06:02 Cloudy with Mist and Fog 65 18.3 64 17.8 97 97 SE 5 7 29.68 1005 3 5 0.00 0.00
6:16 am 06:16 Cloudy with Mist and Fog 65 18.3 64 17.8 97 97 SSE 5 7 29.71 1006 4 6 0.00 0.00
6:53 am 06:53 Partly Cloudy with Mist and Fog 64 17.8 64 17.8 100 100 S 6 9 29.71 1006 5 8 0.00 0.00
7:16 am 07:16 Cloudy with Mist and Fog 65 18.3 64 17.8 97 97 S 7 11 29.71 1006 5 8 0.00 0.00
7:34 am 07:34 Cloudy with Mist and Fog 65 18.3 64 17.8 97 97 S 8 13 29.71 1006 5 8 0.00 0.00
7:53 am 07:53 Cloudy with Mist and Fog 65 18.3 64 17.8 97 97 S 7 11 29.73 1007 4 6 0.00 0.00
8:53 am 08:53 Cloudy with Mist and Fog 65 18.3 63 17.2 93 93 WSW 6 9 29.76 1008 6 10 0.00 0.00
9:53 am 09:53 Mostly Cloudy 67 19.4 61 16.1 81 81 W 7 11 29.77 1008 8 13 0.00 0.00
10:53 am 10:53 Cloudy 64 17.8 54 12.2 70 70 SW 7 11 29.80 1009 10 16 0.00 0.00
11:53 am 11:53 Cloudy 66 18.9 53 11.7 63 63 SW 6 9 29.79 1009 10 16 0.00 0.00
12:53 pm 12:53 Sunny 69 20.6 47 8.3 45 45 SW 15 24 29.75 1008 10 16 0.00 0.00
1:53 pm 13:53 Sunny 70 21.1 44 6.7 39 39 SW 13 20 29.73 1007 10 16 0.00 0.00
2:53 pm 14:53 Sunny 71 21.7 45 7.2 39 39 SW 10 17 29.72 1006 10 16 0.00 0.00
3:53 pm 15:53 Sunny 70 21.1 41 5 35 35 SW 12 19 29.73 1007 10 16 0.00 0.00
4:53 pm 16:53 Sunny 67 19.4 42 5.6 41 41 SW 9 15 29.75 1007 10 16 0.00 0.00
5:53 pm 17:53 Clear 64 17.8 42 5.6 45 45 SW 5 7 29.77 1008 10 16 0.00 0.00
6:53 pm 18:53 Clear 56 13.3 45 7.2 67 67 Calm 29.80 1009 10 16 0.00 0.00
7:53 pm 19:53 Clear 54 12.2 47 8.3 77 77 SW 5 7 29.81 1010 10 16 0.00 0.00
8:53 pm 20:53 Clear 51 10.6 45 7.2 80 80 Calm 29.83 1010 10 16 0.00 0.00
9:53 pm 21:53 Clear 49 9.4 45 7.2 86 86 Calm 29.84 1011 10 16 0.00 0.00
10:53 pm 22:53 Clear 47 8.3 45 7.2 93 93 Calm 29.86 1011 9 14 0.00 0.00
11:53 pm 23:53 Clear 47 8.3 45 7.2 93 93 Calm 29.85 1011 9 14 0.00 0.00

Powered by AerisWeather